Hourly Weather Gogoly

Today, 17 May, Monday

Time Temperature Precipitation Wind Pressure Humidity
00:00 +9°C° 0 mm 2 mps 742 mmHg 90%
01:00 +8°C° 0 mm 2 mps 742 mmHg 90%
02:00 +8°C° 0 mm 2 mps 742 mmHg 91%
03:00 +8°C° 0 mm 2 mps 742 mmHg 91%
04:00 +8°C° 0 mm 3 mps 742 mmHg 91%
05:00 +9°C° 0 mm 3 mps 742 mmHg 87%
06:00 +11°C° 0 mm 3 mps 742 mmHg 83%
07:00 +13°C° 0 mm 3 mps 742 mmHg 79%
08:00 +14°C° 0.2 mm 3 mps 742 mmHg 75%
09:00 +16°C° 0.2 mm 3 mps 742 mmHg 70%
10:00 +18°C° 0.2 mm 3 mps 742 mmHg 66%
11:00 +18°C° 0.4 mm 3 mps 742 mmHg 65%
12:00 +18°C° 0.4 mm 3 mps 742 mmHg 65%
13:00 +18°C° 0.4 mm 3 mps 742 mmHg 64%
14:00 +18°C° 0.4 mm 3 mps 742 mmHg 68%
15:00 +17°C° 0.4 mm 2 mps 742 mmHg 72%
16:00 +16°C° 0.4 mm 2 mps 742 mmHg 77%
17:00 +14°C° 1.5 mm 3 mps 742 mmHg 83%
18:00 +13°C° 1.5 mm 3 mps 742 mmHg 89%
19:00 +12°C° 1.5 mm 3 mps 743 mmHg 95%
20:00 +11°C° 1.8 mm 3 mps 743 mmHg 95%
21:00 +12°C° 1.8 mm 2 mps 743 mmHg 96%
22:00 +12°C° 1.8 mm 2 mps 743 mmHg 96%
23:00 +12°C° 2.5 mm 2 mps 743 mmHg 96%

Tomorrow, 18 May, Tuesday

Time Temperature Precipitation Wind Pressure Humidity
00:00 +12°C° 2.5 mm 2 mps 743 mmHg 96%
01:00 +11°C° 2.5 mm 1 mps 743 mmHg 96%
02:00 +11°C° 1.4 mm 1 mps 743 mmHg 96%
03:00 +11°C° 1.4 mm 1 mps 743 mmHg 97%
04:00 +11°C° 1.4 mm 1 mps 743 mmHg 97%
05:00 +10°C° 0.4 mm 2 mps 743 mmHg 96%
06:00 +11°C° 0.4 mm 3 mps 744 mmHg 95%
07:00 +11°C° 0.4 mm 3 mps 744 mmHg 94%
08:00 +12°C° 0.2 mm 4 mps 744 mmHg 91%
09:00 +12°C° 0.2 mm 4 mps 744 mmHg 89%
10:00 +13°C° 0.2 mm 5 mps 745 mmHg 86%
11:00 +13°C° 0.5 mm 5 mps 745 mmHg 84%
12:00 +13°C° 0.5 mm 5 mps 745 mmHg 83%
13:00 +14°C° 0.5 mm 5 mps 745 mmHg 81%
14:00 +14°C° 0.5 mm 5 mps 745 mmHg 81%
15:00 +14°C° 0.5 mm 4 mps 745 mmHg 81%
16:00 +14°C° 0.5 mm 4 mps 745 mmHg 81%
17:00 +13°C° 0.3 mm 3 mps 745 mmHg 83%
18:00 +13°C° 0.3 mm 3 mps 746 mmHg 86%
19:00 +12°C° 0.3 mm 3 mps 746 mmHg 88%
20:00 +11°C° 0 mm 3 mps 746 mmHg 90%
21:00 +10°C° 0 mm 3 mps 746 mmHg 92%
22:00 +10°C° 0 mm 3 mps 746 mmHg 94%
23:00 +9°C° 0 mm 3 mps 746 mmHg 95%

Day after tomorrow, 19 May, Wednesday

Time Temperature Precipitation Wind Pressure Humidity
00:00 +9°C° 0 mm 3 mps 746 mmHg 95%
01:00 +8°C° 0 mm 3 mps 747 mmHg 96%
02:00 +8°C° 0.2 mm 3 mps 747 mmHg 96%
03:00 +7°C° 0.2 mm 3 mps 747 mmHg 97%
04:00 +7°C° 0.2 mm 3 mps 747 mmHg 97%
05:00 +8°C° 0 mm 3 mps 748 mmHg 94%
06:00 +8°C° 0 mm 4 mps 748 mmHg 91%
07:00 +11°C° 0 mm 4 mps 748 mmHg 88%
08:00 +12°C° 0 mm 4 mps 748 mmHg 82%
09:00 +13°C° 0 mm 4 mps 748 mmHg 75%
10:00 +14°C° 0 mm 4 mps 748 mmHg 68%
11:00 +14°C° 0.2 mm 4 mps 748 mmHg 71%
12:00 +14°C° 0.2 mm 5 mps 748 mmHg 74%
13:00 +13°C° 0.2 mm 5 mps 749 mmHg 77%
14:00 +14°C° 0.3 mm 5 mps 749 mmHg 75%
15:00 +14°C° 0.3 mm 5 mps 749 mmHg 74%
16:00 +14°C° 0.3 mm 4 mps 748 mmHg 72%
17:00 +13°C° 0.3 mm 4 mps 749 mmHg 77%
18:00 +12°C° 0.3 mm 3 mps 749 mmHg 82%
19:00 +11°C° 0.3 mm 3 mps 749 mmHg 87%
20:00 +10°C° 0 mm 3 mps 749 mmHg 89%
21:00 +9°C° 0 mm 3 mps 749 mmHg 91%
22:00 +8°C° 0 mm 3 mps 750 mmHg 94%
23:00 +8°C° 0 mm 3 mps 750 mmHg 94%

20 May, Thursday

Time Temperature Precipitation Wind Pressure Humidity
00:00 +7°C° 0 mm 3 mps 750 mmHg 95%
01:00 +7°C° 0 mm 3 mps 750 mmHg 95%
02:00 +5°C° 0 mm 3 mps 750 mmHg 94%
03:00 +5°C° 0 mm 3 mps 750 mmHg 93%
04:00 +4°C° 0 mm 3 mps 751 mmHg 92%
05:00 +7°C° 0 mm 3 mps 751 mmHg 87%
06:00 +7°C° 0 mm 4 mps 751 mmHg 83%
07:00 +8°C° 0 mm 4 mps 751 mmHg 79%
08:00 +10°C° 0 mm 5 mps 751 mmHg 73%
09:00 +12°C° 0 mm 5 mps 751 mmHg 68%
10:00 +14°C° 0 mm 6 mps 751 mmHg 62%
11:00 +14°C° 0 mm 6 mps 751 mmHg 59%
12:00 +15°C° 0 mm 6 mps 751 mmHg 56%
13:00 +16°C° 0 mm 6 mps 751 mmHg 54%
14:00 +15°C° 0.1 mm 6 mps 751 mmHg 58%
15:00 +15°C° 0.1 mm 6 mps 751 mmHg 62%
16:00 +15°C° 0.1 mm 7 mps 751 mmHg 67%
17:00 +13°C° 0.1 mm 6 mps 751 mmHg 70%
18:00 +11°C° 0.1 mm 6 mps 751 mmHg 72%
19:00 +10°C° 0.1 mm 6 mps 752 mmHg 75%
20:00 +9°C° 0 mm 5 mps 752 mmHg 77%
21:00 +7°C° 0 mm 4 mps 752 mmHg 80%
22:00 +6°C° 0 mm 4 mps 752 mmHg 82%
23:00 +5°C° 0 mm 4 mps 753 mmHg 84%

21 May, Friday

Time Temperature Precipitation Wind Pressure Humidity
00:00 +4°C° 0 mm 4 mps 753 mmHg 87%
01:00 +4°C° 0 mm 4 mps 753 mmHg 89%
02:00 +4°C° 0 mm 4 mps 753 mmHg 89%
03:00 +3°C° 0 mm 4 mps 753 mmHg 89%
04:00 +3°C° 0 mm 4 mps 753 mmHg 89%
05:00 +3°C° 0 mm 5 mps 753 mmHg 84%
06:00 +6°C° 0 mm 5 mps 753 mmHg 79%
07:00 +7°C° 0 mm 6 mps 753 mmHg 74%
08:00 +8°C° 0 mm 6 mps 753 mmHg 68%
09:00 +9°C° 0 mm 6 mps 753 mmHg 62%
10:00 +10°C° 0 mm 7 mps 752 mmHg 57%
11:00 +11°C° 0 mm 7 mps 752 mmHg 56%
12:00 +12°C° 0 mm 7 mps 752 mmHg 56%
13:00 +12°C° 0 mm 7 mps 752 mmHg 55%
14:00 +13°C° 0 mm 6 mps 752 mmHg 57%
15:00 +13°C° 0 mm 5 mps 752 mmHg 59%
16:00 +13°C° 0 mm 4 mps 751 mmHg 61%
17:00 +12°C° 0 mm 3 mps 751 mmHg 66%
18:00 +12°C° 0 mm 3 mps 751 mmHg 71%
19:00 +12°C° 0 mm 2 mps 750 mmHg 76%
20:00 +10°C° 0 mm 2 mps 750 mmHg 77%
21:00 +10°C° 0 mm 3 mps 750 mmHg 79%
22:00 +9°C° 0 mm 3 mps 750 mmHg 80%
23:00 +9°C° 0.4 mm 3 mps 750 mmHg 85%

22 May, Saturday

Time Temperature Precipitation Wind Pressure Humidity
00:00 +9°C° 0.4 mm 2 mps 749 mmHg 90%
01:00 +9°C° 0.4 mm 2 mps 749 mmHg 95%
02:00 +9°C° 0.2 mm 2 mps 749 mmHg 95%
03:00 +9°C° 0.2 mm 2 mps 748 mmHg 95%
04:00 +9°C° 0.2 mm 2 mps 748 mmHg 94%
05:00 +10°C° 0 mm 3 mps 748 mmHg 90%
06:00 +11°C° 0 mm 4 mps 748 mmHg 85%
07:00 +12°C° 0 mm 4 mps 747 mmHg 81%
08:00 +14°C° 0 mm 5 mps 747 mmHg 74%
09:00 +15°C° 0 mm 6 mps 747 mmHg 68%
10:00 +17°C° 0 mm 6 mps 747 mmHg 62%
11:00 +17°C° 0.1 mm 6 mps 747 mmHg 62%
12:00 +19°C° 0.1 mm 6 mps 747 mmHg 62%
13:00 +19°C° 0.1 mm 6 mps 747 mmHg 63%
14:00 +17°C° 0.4 mm 6 mps 747 mmHg 68%
15:00 +17°C° 0.4 mm 5 mps 747 mmHg 74%
16:00 +16°C° 0.4 mm 5 mps 747 mmHg 79%
17:00 +15°C° 0.4 mm 4 mps 747 mmHg 83%
18:00 +13°C° 0.4 mm 4 mps 748 mmHg 87%
19:00 +12°C° 0.4 mm 3 mps 748 mmHg 91%
20:00 +12°C° 0 mm 3 mps 748 mmHg 91%
21:00 +11°C° 0 mm 3 mps 748 mmHg 91%
22:00 +12°C° 0 mm 2 mps 748 mmHg 91%
23:00 +10°C° 0 mm 2 mps 748 mmHg 92%
Show more